Mackall AAF, NC

9:57 PM EDT on August 23, 2017 (GMT -0400)
Mackall Army Air Field

Weather History for KHFF - February, 2014

Change the Weather History Date:

Monday, February 3, 2014

  Actual Average Record
Temperature  
Mean Temperature 58 °F -  
Max Temperature 71 °F 53 °F 71 °F (2003)
Min Temperature 43 °F 31 °F 19 °F (2015)
Degree Days  
Heating Degree Days 8    
Growing Degree Days 8 (Base 50)    
Moisture  
Dew Point 54 °F    
Average Humidity 87    
Maximum Humidity 100    
Minimum Humidity 57    
Precipitation  
Precipitation 0.03 in - - ()
Sea Level Pressure  
Sea Level Pressure 30.01 in    
Wind  
Wind Speed 10 mph (SSW)    
Max Wind Speed 22 mph    
Max Gust Speed 34 mph    
Visibility 9 miles    
Events Rain    
Averages and records for this station are not official NWS values.
T = Trace of Precipitation, MM = Missing Value Source: NWS Daily Summary

Daily Weather History Graph

Daily Weather History Graph

Search for Another Location

Airport or City:

Trip Planner

Search our weather history database for the weather conditions in past years. The results will help you decide how hot, cold, wet, or windy it might be!

Date:

Astronomy

Feb. 03, 2014 Rise Set
Actual Time 7:15 AM EST 5:48 PM EST
Civil Twilight 6:48 AM EST 6:15 PM EST
Nautical Twilight 6:18 AM EST 6:45 PM EST
Astronomical Twilight 5:48 AM EST 7:15 PM EST
Moon 9:28 AM EST (2/3) 10:24 PM EST (2/3)
Length of Visible Light 11h 26m
Length of Day
10h 33m
Waxing Crescent, 19% of the Moon is Illuminated
Feb 3
Waxing Crescent
Feb 6
First Quarter
Feb 14
Full
Feb 22
Last Quarter
Mar 1
New

Hourly Weather History & Observations

Time (EST) Temp. Windchill Dew Point Humidity Pressure Visibility Wind Dir Wind Speed Gust Speed Precip Events Conditions
12:06 AM 44.6 °F - 44.6 °F 100% 30.04 in 4.0 mi SSE 2.3 mph - N/A   Mostly Cloudy
12:56 AM 44.8 °F 42.4 °F 44.2 °F 98% 30.02 in 4.0 mi ESE 4.6 mph - N/A   Mostly Cloudy
1:56 AM 48.4 °F - 47.7 °F 97% 30.01 in 8.0 mi SE 3.5 mph - N/A   Mostly Cloudy
2:56 AM 47.1 °F - 46.6 °F 98% 30.00 in 6.0 mi SSE 4.6 mph - N/A   Mostly Cloudy
3:56 AM 49.3 °F - 48.4 °F 97% 29.98 in 10.0 mi SE 3.5 mph - N/A   Mostly Cloudy
4:11 AM 50.0 °F - 48.2 °F 94% 29.97 in 12.0 mi SSE 4.6 mph - N/A   Mostly Cloudy
4:26 AM 50.0 °F - 50.0 °F 100% 29.96 in 12.0 mi SSE 6.9 mph - N/A   Mostly Cloudy
4:56 AM 52.0 °F - 50.5 °F 95% 29.96 in 12.0 mi South 10.4 mph - N/A   Mostly Cloudy
5:31 AM 53.6 °F - 51.8 °F 94% 29.94 in 12.0 mi South 9.2 mph - N/A   Mostly Cloudy
5:46 AM 53.6 °F - 51.8 °F 94% 29.95 in 12.0 mi SSW 8.1 mph - N/A   Mostly Cloudy
5:56 AM 54.0 °F - 52.2 °F 94% 29.95 in 12.0 mi South 9.2 mph - N/A   Mostly Cloudy
6:04 AM 53.6 °F - 53.6 °F 100% 29.94 in 12.0 mi South 11.5 mph - N/A   Overcast
6:09 AM 55.4 °F - 53.6 °F 94% 29.94 in 12.0 mi South 12.7 mph - N/A   Overcast
6:29 AM 55.4 °F - 55.4 °F 100% 29.94 in 8.0 mi South 15.0 mph 23.0 mph N/A   Overcast
6:56 AM 56.8 °F - 55.9 °F 97% 29.93 in 6.0 mi South 17.3 mph 24.2 mph N/A   Overcast
7:51 AM 60.8 °F - 59.0 °F 94% 29.93 in 8.0 mi SSW 15.0 mph 23.0 mph N/A   Overcast
7:56 AM 61.0 °F - 59.5 °F 95% 29.95 in 9.0 mi SSW 19.6 mph 25.3 mph N/A   Overcast
8:21 AM 62.6 °F - 60.8 °F 94% 29.94 in 12.0 mi SSW 16.1 mph 23.0 mph N/A   Mostly Cloudy
8:31 AM 62.6 °F - 60.8 °F 94% 29.95 in 12.0 mi SSW 18.4 mph 25.3 mph N/A   Mostly Cloudy
8:56 AM 64.0 °F - 61.0 °F 90% 29.97 in 12.0 mi SSW 17.3 mph 26.5 mph N/A   Mostly Cloudy
9:06 AM 64.4 °F - 60.8 °F 88% 29.97 in 12.0 mi SSW 16.1 mph 26.5 mph N/A   Mostly Cloudy
9:20 AM 64.4 °F - 60.8 °F 88% 29.99 in 12.0 mi SW 13.8 mph 28.8 mph N/A Rain Light Rain
9:56 AM 63.9 °F - 61.3 °F 91% 30.00 in 4.0 mi SW 12.7 mph - 0.01 in Rain Light Rain
10:11 AM 64.4 °F - 60.8 °F 88% 29.99 in 7.0 mi SW 12.7 mph - N/A Rain Light Rain Showers
10:31 AM 64.4 °F - 60.8 °F 88% 30.00 in 2.5 mi SW 13.8 mph 23.0 mph N/A Rain Light Rain Showers
10:41 AM 64.4 °F - 62.6 °F 94% 30.00 in 2.2 mi SW 11.5 mph - N/A Rain Light Rain Showers
10:51 AM 64.4 °F - 62.6 °F 94% 29.99 in 1.9 mi SW 15.0 mph 23.0 mph N/A Rain Light Rain Showers
10:56 AM 64.0 °F - 62.1 °F 93% 30.00 in 1.9 mi SW 15.0 mph 23.0 mph 0.02 in Rain Light Rain Showers
11:01 AM 64.4 °F - 62.6 °F 94% 29.99 in 2.5 mi SW 12.7 mph - N/A Rain Light Rain Showers
11:06 AM 64.4 °F - 62.6 °F 94% 29.99 in 4.0 mi SW 13.8 mph - N/A Rain Light Rain Showers
11:14 AM 66.2 °F - 62.6 °F 88% 29.98 in 8.0 mi SW 16.1 mph 23.0 mph N/A   Mostly Cloudy
11:39 AM 66.2 °F - 62.6 °F 88% 29.97 in 12.0 mi SSW 18.4 mph - N/A   Mostly Cloudy
11:56 AM 67.3 °F - 62.1 °F 83% 29.97 in 12.0 mi SSW 20.7 mph 27.6 mph N/A   Mostly Cloudy
12:56 PM 69.1 °F - 59.5 °F 72% 29.97 in 12.0 mi SW 20.7 mph 34.5 mph N/A   Mostly Cloudy
1:56 PM 69.6 °F - 57.7 °F 66% 29.96 in 12.0 mi WSW 16.1 mph 23.0 mph N/A   Mostly Cloudy
2:56 PM 69.6 °F - 56.8 °F 64% 29.98 in 12.0 mi WSW 9.2 mph 19.6 mph N/A   Mostly Cloudy
3:50 PM 71.6 °F - 55.4 °F 57% 30.00 in 12.0 mi North 20.7 mph 31.1 mph N/A   Partly Cloudy
3:56 PM 61.7 °F - 49.1 °F 63% 30.02 in 12.0 mi North 21.9 mph 32.2 mph N/A   Scattered Clouds
4:56 PM 54.1 °F - 45.3 °F 72% 30.07 in 12.0 mi North 12.7 mph 20.7 mph N/A   Partly Cloudy
5:56 PM 52.0 °F - 42.4 °F 70% 30.11 in 12.0 mi NNE 16.1 mph 24.2 mph N/A   Mostly Cloudy
6:56 PM 49.6 °F - 41.7 °F 74% 30.14 in 12.0 mi NNE 10.4 mph - N/A   Mostly Cloudy
7:56 PM 48.7 °F - 41.0 °F 75% 30.18 in 12.0 mi NNE 16.1 mph 20.7 mph N/A   Mostly Cloudy
8:56 PM 47.7 °F - 40.6 °F 77% 30.21 in 12.0 mi ENE 12.7 mph - N/A   Mostly Cloudy
9:56 PM 46.2 °F 41.2 °F 37.9 °F 73% 30.24 in 12.0 mi NE 10.4 mph - N/A   Mostly Cloudy
10:56 PM 45.5 °F 40.3 °F 37.9 °F 75% 30.24 in 12.0 mi ENE 10.4 mph 17.3 mph N/A   Mostly Cloudy
11:56 PM 43.5 °F 37.5 °F 36.5 °F 76% 30.25 in 12.0 mi NE 11.5 mph 18.4 mph N/A   Mostly Cloudy